{"data":{"norad_id":59727,"intl_designator":"2024-088V","name":"STARLINK-31827","alt_names":[],"object_type":"PAYLOAD","status":"ACTIVE","operator":null,"country":"US","launch_date":"2024-05-10","launch_site_code":"AFWTR","launch_vehicle":null,"mission":null,"orbit_class":"UNKNOWN","rcs_meters":null,"size_class":null,"mass_kg":null,"dimensions":null,"purposes":["comms"],"wikipedia_slug":null,"has_3d_model":false,"image_url":null,"decayed_at":null,"tle_current":{"epoch":"2026-05-24T21:00:44.491680Z","epoch_age_seconds":79737,"freshness":"FRESH","line1":"1 59727U 24088V   26144.87551495  .00000046  00000+0  13244-4 0  9990","line2":"2 59727  53.1600 146.2378 0001211  84.8485 275.2655 15.31702549115466","mean_motion":15.31702549,"eccentricity":0.0001211,"inclination_deg":53.16,"raan_deg":146.2378,"arg_perigee_deg":84.8485,"mean_anomaly_deg":275.2655,"bstar":1.3244e-5,"rev_number":11546,"period_min":94.013031507986,"perigee_km":469.90299871587,"apogee_km":471.56179488378,"semimajor_km":6848.8693967998,"source":"CELESTRAK","updated_at":"2026-05-25T13:38:19.049972Z"}}}